{"data":{"norad_id":54254,"intl_designator":"2022-155D","name":"JILIN-1 GAOFEN 03D54","alt_names":[],"object_type":"PAYLOAD","status":"ACTIVE","operator":null,"country":"PRC","launch_date":"2022-11-16","launch_site_code":"JSC","launch_vehicle":null,"mission":null,"orbit_class":"UNKNOWN","rcs_meters":null,"size_class":null,"mass_kg":null,"dimensions":null,"purposes":[],"wikipedia_slug":null,"has_3d_model":false,"image_url":null,"decayed_at":null,"tle_current":{"epoch":"2026-07-05T06:00:36.762336Z","epoch_age_seconds":6836687,"freshness":"OLD","line1":"1 54254U 22155D   26186.25042549  .04646595  26402-5  79772-3 0  9992","line2":"2 54254  97.6143 342.1130 0012127 265.6441  94.3468 16.32834755203202","mean_motion":16.32834755,"eccentricity":0.0012127,"inclination_deg":97.6143,"raan_deg":342.113,"arg_perigee_deg":265.6441,"mean_anomaly_deg":94.3468,"bstar":0.00079772,"rev_number":20320,"period_min":88.190185540239,"perigee_km":176.97367983506,"apogee_km":192.89174912055,"semimajor_km":6563.0697144778,"source":"CELESTRAK","updated_at":"2026-07-07T09:00:29.271869Z"}}}